Welcome to the New NWS' Forecast!
Most changes are behind the scenes, but click here for differences you might notice.

Regional Weather Roundup (RWR)

Issued by National Weather Service (NWS)

                            
667 
ASUS45 KSLC 150410
RWRUT 

UTAH REGIONAL WEATHER ROUNDUP
NATIONAL WEATHER SERVICE SALT LAKE CITY UT
1000 PM MDT TUE AUG 14 2018

UTZ001>011-023>025-150500-

NORTHERN UTAH
  
CITY           SKY/WX    TMP DP  RH WIND       PRES   REMARKS
BRIGHAM CITY   CLEAR     78  33  20 CALM      29.98R                  
HILL AFB       PTCLDY    80  38  22 E5        30.01R                  
LOGAN          CLEAR     71  43  36 S3        29.99R                  
OGDEN          PTCLDY    78  42  27 SE3       29.98R                  
SALT LAKE CITY MOCLDY    82  36  19 S6        29.95R                  
TOOELE VALLEY  MOCLDY    73  36  25 S8        29.98R                  
WENDOVER       PTCLDY    84  36  18 NW12      29.96R                  
HEBER CITY       N/A     59  37  44 E6        30.07R                  
WEST JORDAN    MOCLDY    79  37  22 SW6       30.00S                  

$$

UTZ011>015-024>027-150500-

CENTRAL/NORTHEAST UTAH
  
CITY           SKY/WX    TMP DP  RH WIND       PRES   REMARKS
PROVO AIRPORT  PTCLDY    76  47  35 E7        30.02R                  
MOAB/CANYONLAN MOCLDY    88  38  17 N3        29.96R                  
DELTA          PTCLDY    72  43  35 S6        30.03R                  
PRICE          CLOUDY    77  40  26 W10       30.11R                  
RICHFIELD      CLEAR     70  48  46 CALM      30.11F                  
ROOSEVELT      PTCLDY    70  41  35 W5        30.05R                  
VERNAL         CLEAR     71  43  36 NW8       30.04R                  

$$

UTZ013>016-019>022-027-150500-

SOUTHERN UTAH
  
CITY           SKY/WX    TMP DP  RH WIND       PRES   REMARKS
BRYCE CANYON   CLOUDY    66  40  38 W6        30.29R                  
CEDAR CITY     CLOUDY    70  53  54 S17       30.12F                  
MILFORD        CLOUDY    76  48  37 W9        30.07R                  
ST GEORGE      CLEAR     88  49  25 NE10      29.92R                  
HANKSVILLE     MOCLDY    82  43  24 NW13      30.01S                  
KANAB          PTCLDY    73  52  46 S5        30.12S                  
BLANDING         N/A     74  39  28 N10       30.16R                  

$$

REGIONAL REPORTS     COLORADO/ARIZONA
  
CITY           SKY/WX    TMP DP  RH WIND       PRES   REMARKS
CRAIG, CO      PTCLDY    68  41  37 CALM      30.11R                  
GRAND JUNCTION PTCLDY    76  39  26 N3        30.00R                  
RIFLE, CO      PTCLDY    70  39  32 CALM      30.08R                  
MONTROSE, CO   MOCLDY    71  44  37 SE8       30.10R                  
CORTEZ, CO     LGT RAIN  79  45  29 NW16G22   30.11R                  
COLORADO CITY    N/A     77  50  38 E6        30.11F                  
PAGE, AZ       CLOUDY    83  45  26 SW3       30.01R                  
GRAND CANYON   CLOUDY    65  51  60 VRB3      30.24R                  
KINGMAN, AZ    MOCLDY    84  53  34 E23G31    29.98R                  
FLAGSTAFF, AZ  CLOUDY    59  53  80 CALM      30.29R                  

$$

REGIONAL REPORTS    NEVADA/IDAHO/WYOMING
  
CITY           SKY/WX    TMP DP  RH WIND       PRES   REMARKS
LAS VEGAS, NV  PTCLDY    99  46  16 S6        29.78R HX  95           
ELY, NY        MOCLDY    69  45  41 SE10      30.18R                  
ELKO, NV       MOCLDY    79  42  26 W7        30.03S                  
POCATELLO, ID  CLEAR     75  32  20 S10       29.98R                  
BURLEY, ID     CLEAR     72  42  34 SW12      29.94R                  
FORT BRIDGER,    N/A     67  19  16 W7        30.21R                  
EVANSTON, WY   CLEAR     70  26  19 NW8       30.20R                  
ROCK SPRINGS,  CLEAR     73  16  11 W18G29    30.14R                  
KEMMERER, WY   CLEAR     61  19  20 N5        30.21R                  

$$